{"data":{"norad_id":65655,"intl_designator":"2025-211D","name":"STARLINK-35240","alt_names":[],"object_type":"PAYLOAD","status":"ACTIVE","operator":null,"country":"US","launch_date":"2025-09-19","launch_site_code":"AFWTR","launch_vehicle":null,"mission":null,"orbit_class":"UNKNOWN","rcs_meters":null,"size_class":null,"mass_kg":null,"dimensions":null,"purposes":["comms"],"wikipedia_slug":null,"has_3d_model":false,"image_url":null,"decayed_at":null,"tle_current":{"epoch":"2026-09-20T01:17:02.456160Z","epoch_age_seconds":147176,"freshness":"FRESH","line1":"1 65655U 25211D   26263.05350065  .00017228  00000+0  53460-3 0  9991","line2":"2 65655  97.2852 303.2751 0001047  99.4551 260.6810 15.33454894 56457","mean_motion":15.33454894,"eccentricity":0.0001047,"inclination_deg":97.2852,"raan_deg":303.2751,"arg_perigee_deg":99.4551,"mean_anomaly_deg":260.681,"bstar":0.0005346,"rev_number":5645,"period_min":93.905598764876,"perigee_km":464.79720682126,"apogee_km":466.2302672856,"semimajor_km":6843.6507370534,"source":"CELESTRAK","updated_at":"2026-09-21T09:00:35.679655Z"}}}